SCP
0 0 0 0 0 0 0 0 0 0 0 0 0 0 0 0 0 0 0 0 0 0 0 0 0 0 0 0 0 0 0 0 0
0 0 0 0 0 0 0 0 0 0 0 0 0 0 0 0 0 0 0 0 0 0 0 0 0 0 0 0 0 0 0 0 0
0 0 0 0 0 0 0 0 0 0 0 0 0 0 0 0 0 0 0 0 0 0 0 0 0 0 0 0 0 0 0 0 0
0 0 0 0 0 0 0 0 0 0 0 0 0 0 0 0 0 0 0 0 0 0 0 0 0 0 0 0 0 0 0 0 0
0 0 0 0 0 0 0 0 0 0 0 0 0 0 0 0 0 0 0 0 0 0 0 0 0 0 0 0 0 0 0 0 0
0 0 0 0 0 0 0 0 0 0 0 0 0 0 0 0 0 0 0 0 0 0 0 0 0 0 0 0 0 0 0 0 0
0 0 0 0 0 0 0 0 0 0 0 0 0 0 0 0 0 0 0 0 0 0 0 0 0 0 0 0 0 0 0 0 0
0 0 0 0 0 0 0 0 0 0 0 0 0 0 0 0 0 0 0 0 0 0 0 0 0 0 0 0 0 0 0 0 0
0 0 0 0 0 0 0 0 0 0 0 0 0 0 0 0 0 0 0 0 0 0 0 0 0 0 0 0 0 0 0 0 0
0 0 0 0 0 0 0 0 0 0 0 0 0 0 0 0 0 0 0 0 0 0 0 0 0 0 0 0 0 0 0 0 0
0 0 0 0 0 0 0 0 0 0 0 0 0 0 0 0 0 0 0 0 0 0 0 0 0 0 0 0 0 0 0 0 0
0 0 0 0 0 0 0 0 0 0 0 0 0 0 0 0 0 0 0 0 0 0 0 0 0 0 0 0 0 0 0 0 0
0 0 0 0 0 0 0 0 0 0 0 0 0 0 0 0 0 0 0 0 0 0 0 0 0 0 0 0 0 0 0 0 0
0 0 0 0 0 0 0 0 0 0 0 0 0 0 0 0 0 0 0 0 0 0 0 0 0 0 0 0 0 0 0 0 0
0 0 0 0 0 0 0 0 0 0 0 0 0 0 0 0 0 0 0 0 0 0 0 0 0 0 0 0 0 0 0 0 0
0 0 0 0 0 0 0 0 0 0 0 0 0 0 0 0 0 0 0 0 0 0 0 0 0 0 0 0 0 0 0 0 0
0 0 0 0 0 0 0 0 0 0 0 0 0 0 0 0 0 0 0 0 0 0 0 0 0 0 0 0 0 0 0 0 0
0 0 0 0 0 0 0 0 0 0 0 0 0 0 0 0 0 0 0 0 0 0 0 0 0 0 0 0 0 0 0 0 0
0 0 0 0 0 0 0 0 0 0 0 0 0 0 0 0 0 0 0 0 0 0 0 0 0 0 0 0 0 0 0 0 0
0 0 0 0 0 0 0 0 0 0 0 0 0 0 0 0 0 0 0 0 0 0 0 0 0 0 0 0 0 0 0 0 0
Wind_Speed_500mb
11 11 12 14 15 15 15 16 16 16 16 16 16 15 14 13 10 5 6 3 8 13 16 17 14 14 15 12 13 16 18 16 18
13 13 15 16 16 16 16 16 15 15 16 17 16 15 12 9 8 4 2 4 12 10 15 20 17 17 19 20 22 25 22 21 22
13 14 16 17 18 19 19 19 18 17 16 15 15 13 12 9 7 7 6 14 16 21 23 22 23 27 30 29 26 26 26 24 23
13 15 17 18 20 21 21 21 21 20 19 18 17 16 13 8 8 5 4 13 18 23 26 27 28 30 32 34 33 26 24 21 19
14 16 18 21 22 22 23 24 24 23 21 19 18 16 13 10 10 7 11 13 15 24 27 29 31 29 27 30 31 26 22 25 30
13 15 18 20 22 24 25 25 25 25 23 21 19 16 14 11 9 7 13 13 11 14 19 26 30 29 30 28 24 21 23 24 28
11 15 18 21 23 24 25 26 26 26 24 24 22 19 16 12 10 10 15 15 15 14 19 28 26 18 12 15 16 22 29 33 34
11 14 18 20 22 23 25 27 27 26 26 25 23 21 18 13 11 14 16 17 18 17 15 13 15 7 10 7 13 18 17 19 33
8 12 15 18 21 23 25 26 28 29 28 27 25 23 21 17 14 14 17 17 17 16 17 14 9 14 12 8 11 17 23 25 34
8 12 15 18 21 23 26 28 29 28 27 26 26 25 23 20 16 10 18 18 18 17 16 20 25 23 17 19 25 26 31 35 40
8 13 16 19 22 25 27 27 28 28 28 27 27 26 24 21 17 13 13 18 18 17 18 19 21 20 27 32 29 32 41 37 30
10 13 17 20 23 25 26 28 29 28 29 28 27 26 25 24 19 15 12 15 17 17 17 18 21 22 22 23 27 30 29 29 27
11 14 19 21 23 25 28 28 28 29 28 27 26 26 23 20 15 14 13 13 13 16 17 18 20 20 21 22 23 25 27 29 28
13 16 18 21 24 26 25 27 28 27 24 24 25 23 18 15 11 12 14 16 16 17 22 22 24 24 25 25 25 27 28 30 31
15 17 19 21 23 24 24 23 24 24 26 24 24 18 16 13 11 11 16 19 23 25 26 28 29 30 29 31 33 33 33 34 34
17 19 20 20 21 21 20 19 19 22 25 23 16 15 16 14 14 21 24 23 22 27 29 28 31 35 36 38 38 39 40 38 35
19 19 20 20 20 18 17 18 19 20 21 21 16 10 9 8 28 24 17 19 23 24 31 35 44 52 52 52 48 45 44 40 36
19 19 20 19 16 15 15 15 14 15 20 20 12 9 8 28 15 22 25 23 26 32 43 42 40 43 42 41 36 41 36 33 27
19 19 20 19 15 14 15 13 15 17 17 19 17 12 14 9 16 16 21 29 35 31 31 39 35 39 36 34 34 34 32 31 33
20 21 19 17 15 15 13 14 16 16 15 15 17 19 19 17 13 29 24 33 27 35 36 32 29 29 32 32 33 31 30 34 35
Wind_Direction_500mb
22 20 18 14 6 357 352 346 344 338 332 333 329 322 316 308 301 309 348 37 271 276 272 254 280 278 274 286 303 308 288 278 267
31 28 29 24 14 8 2 358 353 346 341 339 333 330 329 320 303 290 240 235 215 254 261 265 265 272 282 291 295 294 300 290 279
42 39 35 26 17 13 9 3 359 355 350 342 336 336 334 341 306 276 249 249 245 252 265 271 274 279 284 291 295 297 290 282 285
47 41 34 26 20 16 10 5 2 358 353 350 348 344 340 342 312 309 318 260 260 265 267 273 280 282 286 287 291 290 280 274 268
47 40 32 27 21 17 15 11 7 4 1 356 349 345 341 334 323 326 284 267 270 278 281 276 276 275 278 281 285 289 284 264 251
49 39 32 26 21 19 17 15 12 9 6 0 356 351 345 335 327 338 299 283 276 291 291 286 279 281 276 276 281 267 267 265 264
47 34 28 23 20 18 15 13 11 11 8 3 2 358 347 337 325 307 299 289 280 271 274 292 307 296 306 288 272 267 270 271 270
38 26 20 16 13 11 9 7 6 5 3 2 360 357 352 340 327 305 299 292 285 281 284 302 335 360 333 257 255 270 282 287 276
23 15 9 6 4 2 1 358 357 356 355 353 352 349 346 338 323 309 306 301 296 285 268 248 268 271 260 260 265 258 279 288 293
2 356 355 354 354 353 353 354 351 348 345 344 344 341 336 329 318 308 307 303 299 289 268 249 247 248 253 263 276 279 272 274 287
337 342 344 344 346 349 349 347 346 346 343 339 334 332 328 323 312 300 301 305 305 297 286 276 266 263 247 250 260 270 276 278 284
323 330 332 340 345 344 343 344 346 345 341 336 331 327 321 315 305 297 282 303 307 301 294 292 291 287 276 268 267 273 286 295 295
309 319 333 339 338 341 343 344 345 346 346 342 336 330 324 319 304 298 296 292 300 309 303 303 303 303 298 292 290 291 289 293 295
299 322 328 330 337 341 343 343 346 350 353 349 343 335 332 330 320 312 308 296 296 298 302 302 302 304 304 302 299 296 295 297 294
308 313 317 328 334 339 344 346 346 348 353 354 348 336 335 330 318 315 312 297 288 288 292 296 296 297 298 302 299 296 298 296 294
299 300 312 324 331 337 341 344 350 348 350 1 346 336 326 315 313 313 303 300 293 291 293 294 297 297 296 295 295 291 291 290 288
287 296 306 318 326 330 336 343 344 349 357 360 356 336 310 328 308 312 310 307 309 312 308 305 303 300 298 297 294 288 285 284 281
284 291 300 307 310 316 325 331 342 346 346 353 3 334 318 326 310 314 311 309 303 308 305 303 302 299 297 297 294 289 287 283 302
283 288 291 294 298 302 315 325 334 338 339 342 347 339 313 321 314 316 309 310 309 313 316 315 314 307 302 298 292 290 288 287 287
279 280 281 280 286 299 310 319 324 331 336 346 346 341 332 321 292 304 309 312 308 313 323 320 317 312 302 298 297 297 296 297 289
Wind_Speed_850mb
11 11 12 14 15 15 15 16 16 16 16 16 16 15 14 13 10 5 6 3 8 13 16 17 14 14 15 12 13 16 18 16 18
13 13 15 16 16 16 16 16 15 15 16 17 16 15 12 9 8 4 2 4 12 10 15 20 17 17 19 20 22 25 22 21 22
13 14 16 17 18 19 19 19 18 17 16 15 15 13 12 9 7 7 6 14 16 21 23 22 23 27 30 29 26 26 26 24 23
13 15 17 18 20 21 21 21 21 20 19 18 17 16 13 8 8 5 4 13 18 23 26 27 28 30 32 34 33 26 24 21 19
14 16 18 21 22 22 23 24 24 23 21 19 18 16 13 10 10 7 11 13 15 24 27 29 31 29 27 30 31 26 22 25 30
13 15 18 20 22 24 25 25 25 25 23 21 19 16 14 11 9 7 13 13 11 14 19 26 30 29 30 28 24 21 23 24 28
11 15 18 21 23 24 25 26 26 26 24 24 22 19 16 12 10 10 15 15 15 14 19 28 26 18 12 15 16 22 29 33 34
11 14 18 20 22 23 25 27 27 26 26 25 23 21 18 13 11 14 16 17 18 17 15 13 15 7 10 7 13 18 17 19 33
8 12 15 18 21 23 25 26 28 29 28 27 25 23 21 17 14 14 17 17 17 16 17 14 9 14 12 8 11 17 23 25 34
8 12 15 18 21 23 26 28 29 28 27 26 26 25 23 20 16 10 18 18 18 17 16 20 25 23 17 19 25 26 31 35 40
8 13 16 19 22 25 27 27 28 28 28 27 27 26 24 21 17 13 13 18 18 17 18 19 21 20 27 32 29 32 41 37 30
10 13 17 20 23 25 26 28 29 28 29 28 27 26 25 24 19 15 12 15 17 17 17 18 21 22 22 23 27 30 29 29 27
11 14 19 21 23 25 28 28 28 29 28 27 26 26 23 20 15 14 13 13 13 16 17 18 20 20 21 22 23 25 27 29 28
13 16 18 21 24 26 25 27 28 27 24 24 25 23 18 15 11 12 14 16 16 17 22 22 24 24 25 25 25 27 28 30 31
15 17 19 21 23 24 24 23 24 24 26 24 24 18 16 13 11 11 16 19 23 25 26 28 29 30 29 31 33 33 33 34 34
17 19 20 20 21 21 20 19 19 22 25 23 16 15 16 14 14 21 24 23 22 27 29 28 31 35 36 38 38 39 40 38 35
19 19 20 20 20 18 17 18 19 20 21 21 16 10 9 8 28 24 17 19 23 24 31 35 44 52 52 52 48 45 44 40 36
19 19 20 19 16 15 15 15 14 15 20 20 12 9 8 28 15 22 25 23 26 32 43 42 40 43 42 41 36 41 36 33 27
19 19 20 19 15 14 15 13 15 17 17 19 17 12 14 9 16 16 21 29 35 31 31 39 35 39 36 34 34 34 32 31 33
20 21 19 17 15 15 13 14 16 16 15 15 17 19 19 17 13 29 24 33 27 35 36 32 29 29 32 32 33 31 30 34 35
Wind_Direction_850mb
22 20 18 14 6 357 352 346 344 338 332 333 329 322 316 308 301 309 348 37 271 276 272 254 280 278 274 286 303 308 288 278 267
31 28 29 24 14 8 2 358 353 346 341 339 333 330 329 320 303 290 240 235 215 254 261 265 265 272 282 291 295 294 300 290 279
42 39 35 26 17 13 9 3 359 355 350 342 336 336 334 341 306 276 249 249 245 252 265 271 274 279 284 291 295 297 290 282 285
47 41 34 26 20 16 10 5 2 358 353 350 348 344 340 342 312 309 318 260 260 265 267 273 280 282 286 287 291 290 280 274 268
47 40 32 27 21 17 15 11 7 4 1 356 349 345 341 334 323 326 284 267 270 278 281 276 276 275 278 281 285 289 284 264 251
49 39 32 26 21 19 17 15 12 9 6 0 356 351 345 335 327 338 299 283 276 291 291 286 279 281 276 276 281 267 267 265 264
47 34 28 23 20 18 15 13 11 11 8 3 2 358 347 337 325 307 299 289 280 271 274 292 307 296 306 288 272 267 270 271 270
38 26 20 16 13 11 9 7 6 5 3 2 360 357 352 340 327 305 299 292 285 281 284 302 335 360 333 257 255 270 282 287 276
23 15 9 6 4 2 1 358 357 356 355 353 352 349 346 338 323 309 306 301 296 285 268 248 268 271 260 260 265 258 279 288 293
2 356 355 354 354 353 353 354 351 348 345 344 344 341 336 329 318 308 307 303 299 289 268 249 247 248 253 263 276 279 272 274 287
337 342 344 344 346 349 349 347 346 346 343 339 334 332 328 323 312 300 301 305 305 297 286 276 266 263 247 250 260 270 276 278 284
323 330 332 340 345 344 343 344 346 345 341 336 331 327 321 315 305 297 282 303 307 301 294 292 291 287 276 268 267 273 286 295 295
309 319 333 339 338 341 343 344 345 346 346 342 336 330 324 319 304 298 296 292 300 309 303 303 303 303 298 292 290 291 289 293 295
299 322 328 330 337 341 343 343 346 350 353 349 343 335 332 330 320 312 308 296 296 298 302 302 302 304 304 302 299 296 295 297 294
308 313 317 328 334 339 344 346 346 348 353 354 348 336 335 330 318 315 312 297 288 288 292 296 296 297 298 302 299 296 298 296 294
299 300 312 324 331 337 341 344 350 348 350 1 346 336 326 315 313 313 303 300 293 291 293 294 297 297 296 295 295 291 291 290 288
287 296 306 318 326 330 336 343 344 349 357 360 356 336 310 328 308 312 310 307 309 312 308 305 303 300 298 297 294 288 285 284 281
284 291 300 307 310 316 325 331 342 346 346 353 3 334 318 326 310 314 311 309 303 308 305 303 302 299 297 297 294 289 287 283 302
283 288 291 294 298 302 315 325 334 338 339 342 347 339 313 321 314 316 309 310 309 313 316 315 314 307 302 298 292 290 288 287 287
279 280 281 280 286 299 310 319 324 331 336 346 346 341 332 321 292 304 309 312 308 313 323 320 317 312 302 298 297 297 296 297 289